SKU2213 SCFA-SCEL

Flight info

Callsign SKU2213
Flight time 1h 35m
Altitude 35000
Route UKAT3A UKATO UQ803 SIMOK SIMO7B
Aircraft A20N/M-SD3/L

Departure

Time 2026-05-05 00:36
Airport Andrés Sabella Gálvez International Airport (SCFA)

Arrival

Time 2026-05-05 02:11
Airport Comodoro Arturo Merino Benítez International Airport (SCEL)
Time Latitude Longitude Altitude Speed Heading
2026-05-05 00:15 -23.44828 -70.44152 390 ft 0 kts 95°
2026-05-05 00:28 -23.44827 -70.44159 390 ft 3 kts 95°
2026-05-05 00:28 -23.44825 -70.44188 389 ft 3 kts 92°
2026-05-05 00:29 -23.44836 -70.44211 388 ft 3 kts 37°
2026-05-05 00:29 -23.44852 -70.44217 388 ft 0 kts
2026-05-05 00:30 -23.44851 -70.44217 388 ft 0 kts
2026-05-05 00:31 -23.44844 -70.44218 388 ft 1 kts 345°
2026-05-05 00:31 -23.44828 -70.44249 388 ft 8 kts 317°
2026-05-05 00:31 -23.44756 -70.44276 390 ft 13 kts 345°
2026-05-05 00:31 -23.44649 -70.44308 393 ft 17 kts 344°
2026-05-05 00:32 -23.44515 -70.44322 397 ft 20 kts
2026-05-05 00:32 -23.44366 -70.44300 404 ft 22 kts
2026-05-05 00:32 -23.44207 -70.44283 413 ft 22 kts
2026-05-05 00:32 -23.44050 -70.44262 426 ft 21 kts
2026-05-05 00:33 -23.43916 -70.44245 435 ft 21 kts
2026-05-05 00:33 -23.43765 -70.44228 444 ft 22 kts
2026-05-05 00:33 -23.43613 -70.44209 454 ft 20 kts
2026-05-05 00:33 -23.43501 -70.44216 462 ft 13 kts 320°
2026-05-05 00:34 -23.43446 -70.44299 463 ft 13 kts 298°
2026-05-05 00:34 -23.43399 -70.44372 464 ft 11 kts 354°
2026-05-05 00:34 -23.43337 -70.44367 469 ft 6 kts 17°
2026-05-05 00:34 -23.43309 -70.44352 471 ft 3 kts 35°
2026-05-05 00:35 -23.43300 -70.44351 471 ft 1 kts 302°
2026-05-05 00:35 -23.43313 -70.44363 471 ft 5 kts 205°
2026-05-05 00:35 -23.43389 -70.44373 465 ft 30 kts 179°
2026-05-05 00:35 -23.43874 -70.44433 431 ft 107 kts 186°
2026-05-05 00:36 -23.44833 -70.44550 438 ft 161 kts 186°
2026-05-05 00:36 -23.45985 -70.44736 929 ft 170 kts 190°
2026-05-05 00:36 -23.47098 -70.44891 1761 ft 164 kts 176°
2026-05-05 00:36 -23.48215 -70.44680 2412 ft 168 kts 167°
2026-05-05 00:37 -23.49415 -70.44373 2848 ft 183 kts 167°
2026-05-05 00:37 -23.50708 -70.44062 3259 ft 200 kts 168°
2026-05-05 00:37 -23.52161 -70.43742 3601 ft 223 kts 169°
2026-05-05 00:37 -23.53728 -70.43420 4027 ft 239 kts 169°
2026-05-05 00:38 -23.55419 -70.43085 4405 ft 256 kts 170°
2026-05-05 00:38 -23.57243 -70.42730 4790 ft 271 kts 170°
2026-05-05 00:38 -23.59116 -70.42370 5379 ft 277 kts 170°
2026-05-05 00:38 -23.61009 -70.42007 6051 ft 279 kts 170°
2026-05-05 00:39 -23.62950 -70.41637 6715 ft 282 kts 170°
2026-05-05 00:39 -23.64866 -70.41274 7336 ft 285 kts 170°
2026-05-05 00:39 -23.66842 -70.40900 7931 ft 288 kts 170°
2026-05-05 00:39 -23.68821 -70.40524 8510 ft 291 kts 170°
2026-05-05 00:40 -23.70821 -70.40144 9065 ft 292 kts 170°
2026-05-05 00:40 -23.72853 -70.39757 9583 ft 295 kts 170°
2026-05-05 00:40 -23.74876 -70.39369 10100 ft 298 kts 170°
2026-05-05 00:40 -23.76930 -70.38976 10445 ft 307 kts 170°
2026-05-05 00:41 -23.79106 -70.38609 10672 ft 320 kts 173°
2026-05-05 00:41 -23.81390 -70.38401 10993 ft 329 kts 178°
2026-05-05 00:41 -23.83695 -70.38312 11486 ft 332 kts 178°
2026-05-05 00:41 -23.86025 -70.38236 12000 ft 334 kts 179°
2026-05-05 00:42 -23.88347 -70.38162 12485 ft 336 kts 179°
2026-05-05 00:42 -23.90693 -70.38087 12978 ft 339 kts 179°
2026-05-05 00:42 -23.93058 -70.38010 13486 ft 341 kts 179°
2026-05-05 00:42 -23.95457 -70.37930 14009 ft 343 kts 179°
2026-05-05 00:43 -23.97846 -70.37851 14534 ft 345 kts 179°
2026-05-05 00:43 -24.00258 -70.37771 15065 ft 347 kts 179°
2026-05-05 00:43 -24.02660 -70.37691 15598 ft 348 kts 179°
2026-05-05 00:43 -24.05103 -70.37611 16113 ft 351 kts 179°
2026-05-05 00:44 -24.07556 -70.37530 16615 ft 354 kts 179°
2026-05-05 00:44 -24.10017 -70.37450 17139 ft 357 kts 180°
2026-05-05 00:44 -24.12502 -70.37367 17677 ft 360 kts 180°
2026-05-05 00:44 -24.15023 -70.37284 18158 ft 363 kts 180°
2026-05-05 00:45 -24.17556 -70.37200 18635 ft 365 kts 180°
2026-05-05 00:45 -24.20094 -70.37117 19051 ft 366 kts 180°
2026-05-05 00:45 -24.22690 -70.37029 19514 ft 370 kts 180°
2026-05-05 00:45 -24.25269 -70.36942 19953 ft 373 kts 180°
2026-05-05 00:46 -24.27883 -70.36855 20394 ft 376 kts 180°
2026-05-05 00:46 -24.30499 -70.36768 20808 ft 379 kts 180°
2026-05-05 00:46 -24.33132 -70.36680 21190 ft 382 kts 180°
2026-05-05 00:46 -24.35813 -70.36591 21564 ft 384 kts 180°
2026-05-05 00:47 -24.38497 -70.36501 21924 ft 387 kts 180°
2026-05-05 00:47 -24.41187 -70.36411 22277 ft 390 kts 181°
2026-05-05 00:47 -24.43905 -70.36320 22628 ft 392 kts 181°
2026-05-05 00:47 -24.46648 -70.36228 22969 ft 395 kts 181°
2026-05-05 00:48 -24.49428 -70.36135 23303 ft 397 kts 181°
2026-05-05 00:48 -24.52170 -70.36043 23629 ft 399 kts 181°
2026-05-05 00:48 -24.54976 -70.35950 24043 ft 402 kts 181°
2026-05-05 00:48 -24.57763 -70.35857 24434 ft 403 kts 181°
2026-05-05 00:49 -24.60606 -70.35762 24809 ft 407 kts 181°
2026-05-05 00:49 -24.63447 -70.35667 25182 ft 410 kts 181°
2026-05-05 00:49 -24.66284 -70.35573 25553 ft 413 kts 181°
2026-05-05 00:49 -24.69196 -70.35475 25927 ft 415 kts 182°
2026-05-05 00:50 -24.72083 -70.35379 26289 ft 418 kts 182°
2026-05-05 00:50 -24.74980 -70.35281 26640 ft 420 kts 182°
2026-05-05 00:50 -24.77910 -70.35184 26984 ft 423 kts 182°
2026-05-05 00:50 -24.80864 -70.35085 27327 ft 426 kts 182°
2026-05-05 00:51 -24.83834 -70.34985 27667 ft 428 kts 182°
2026-05-05 00:51 -24.86859 -70.34882 28004 ft 431 kts 182°
2026-05-05 00:51 -24.89826 -70.34782 28349 ft 432 kts 182°
2026-05-05 00:51 -24.92835 -70.34680 28788 ft 432 kts 182°
2026-05-05 00:52 -24.95848 -70.34577 29244 ft 431 kts 183°
2026-05-05 00:52 -24.98823 -70.34476 29687 ft 430 kts 183°
2026-05-05 00:52 -25.01839 -70.34373 30134 ft 429 kts 183°
2026-05-05 00:52 -25.04830 -70.34271 30572 ft 429 kts 184°
2026-05-05 00:53 -25.07799 -70.34171 31004 ft 428 kts 184°
2026-05-05 00:53 -25.10766 -70.34069 31427 ft 428 kts 184°
2026-05-05 00:53 -25.13753 -70.33965 31855 ft 427 kts 184°
2026-05-05 00:53 -25.16742 -70.33861 32279 ft 426 kts 185°
2026-05-05 00:54 -25.19692 -70.33763 32691 ft 425 kts 185°
2026-05-05 00:54 -25.22653 -70.33666 33062 ft 425 kts 185°
2026-05-05 00:54 -25.25630 -70.33568 33398 ft 426 kts 186°
2026-05-05 00:54 -25.28595 -70.33462 33740 ft 427 kts 187°
2026-05-05 00:55 -25.31564 -70.33356 34063 ft 427 kts 187°
2026-05-05 00:55 -25.34543 -70.33256 34371 ft 428 kts 188°
2026-05-05 00:55 -25.37540 -70.33160 34529 ft 430 kts 188°
2026-05-05 00:56 -25.43531 -70.32964 34572 ft 430 kts 188°
2026-05-05 00:56 -25.49502 -70.32769 34476 ft 429 kts 188°
2026-05-05 00:57 -25.55463 -70.32560 34441 ft 429 kts 188°
2026-05-05 00:57 -25.61414 -70.32359 34456 ft 428 kts 188°
2026-05-05 00:58 -25.67383 -70.32158 34497 ft 428 kts 188°
2026-05-05 00:58 -25.73333 -70.31966 34570 ft 428 kts 188°
2026-05-05 00:59 -25.79279 -70.31750 34628 ft 428 kts 188°
2026-05-05 00:59 -25.85243 -70.31547 34670 ft 428 kts 188°
2026-05-05 01:00 -25.91207 -70.31347 34710 ft 427 kts 188°
2026-05-05 01:00 -25.97143 -70.31145 34745 ft 427 kts 188°
2026-05-05 01:01 -26.03074 -70.30933 34772 ft 426 kts 189°
2026-05-05 01:01 -26.08964 -70.31016 34747 ft 418 kts 194°
2026-05-05 01:02 -26.14749 -70.31517 34703 ft 417 kts 195°
2026-05-05 01:02 -26.20571 -70.32060 34643 ft 416 kts 195°
2026-05-05 01:03 -26.26321 -70.32601 34598 ft 417 kts 195°
2026-05-05 01:03 -26.32110 -70.33130 34569 ft 417 kts 195°
2026-05-05 01:04 -26.37898 -70.33660 34541 ft 417 kts 195°
2026-05-05 01:04 -26.46578 -70.34459 34488 ft 417 kts 195°
2026-05-05 01:05 -26.52387 -70.35007 34435 ft 417 kts 194°
2026-05-05 01:05 -26.58163 -70.35535 34362 ft 417 kts 195°
2026-05-05 01:06 -26.63960 -70.36062 34282 ft 417 kts 195°
2026-05-05 01:06 -26.69727 -70.36596 34235 ft 417 kts 195°
2026-05-05 01:07 -26.75545 -70.37142 34209 ft 418 kts 194°
2026-05-05 01:07 -26.81335 -70.37673 34197 ft 418 kts 195°
2026-05-05 01:08 -26.87124 -70.38209 34191 ft 418 kts 195°
2026-05-05 01:08 -26.92939 -70.38752 34400 ft 418 kts 195°
2026-05-05 01:09 -26.95826 -70.39024 34552 ft 418 kts 195°
2026-05-05 01:09 -26.98733 -70.39299 34714 ft 418 kts 195°
2026-05-05 01:09 -27.01624 -70.39567 34824 ft 418 kts 195°
2026-05-05 01:09 -27.04513 -70.39833 34886 ft 417 kts 195°
2026-05-05 01:10 -27.10305 -70.40369 34947 ft 416 kts 195°
2026-05-05 01:10 -27.16072 -70.40907 34973 ft 416 kts 195°
2026-05-05 01:11 -27.21796 -70.41443 34986 ft 415 kts 195°
2026-05-05 01:11 -27.27740 -70.42010 34977 ft 428 kts 195°
2026-05-05 01:12 -27.33765 -70.42582 34973 ft 441 kts 194°
2026-05-05 01:12 -27.40021 -70.43169 34971 ft 452 kts 194°
2026-05-05 01:13 -27.43153 -70.43462 34817 ft 456 kts 194°
2026-05-05 01:13 -27.46319 -70.43752 34596 ft 447 kts 194°
2026-05-05 01:13 -27.49343 -70.44023 34374 ft 436 kts 194°
2026-05-05 01:13 -27.52360 -70.44296 34145 ft 425 kts 195°
2026-05-05 01:14 -27.55258 -70.44563 33919 ft 415 kts 195°
2026-05-05 01:14 -27.58115 -70.44829 33666 ft 405 kts 195°
2026-05-05 01:14 -27.60887 -70.45091 33398 ft 400 kts 195°
2026-05-05 01:14 -27.63656 -70.45361 33129 ft 401 kts 195°
2026-05-05 01:15 -27.66463 -70.45634 32857 ft 401 kts 195°
2026-05-05 01:15 -27.69226 -70.45900 32591 ft 401 kts 195°
2026-05-05 01:15 -27.72010 -70.46166 32325 ft 402 kts 194°
2026-05-05 01:15 -27.74802 -70.46434 32059 ft 404 kts 194°
2026-05-05 01:16 -27.77601 -70.46702 31794 ft 405 kts 194°
2026-05-05 01:16 -27.80443 -70.46973 31526 ft 407 kts 194°
2026-05-05 01:16 -27.83250 -70.47239 31262 ft 407 kts 194°
2026-05-05 01:16 -27.86082 -70.47507 31011 ft 407 kts 193°
2026-05-05 01:17 -27.91738 -70.48044 30913 ft 410 kts 193°
2026-05-05 01:17 -27.97469 -70.48586 30906 ft 412 kts 193°
2026-05-05 01:18 -28.03175 -70.49126 30927 ft 413 kts 192°
2026-05-05 01:18 -28.08907 -70.49667 30971 ft 413 kts 192°
2026-05-05 01:19 -28.14666 -70.50212 30982 ft 413 kts 192°
2026-05-05 01:19 -28.20395 -70.50758 30983 ft 413 kts 193°
2026-05-05 01:20 -28.26110 -70.51302 30985 ft 413 kts 193°
2026-05-05 01:20 -28.31825 -70.51850 30980 ft 413 kts 193°
2026-05-05 01:21 -28.37561 -70.52399 30916 ft 413 kts 193°
2026-05-05 01:21 -28.43297 -70.52948 30766 ft 413 kts 193°
2026-05-05 01:22 -28.49034 -70.53497 30550 ft 413 kts 193°
2026-05-05 01:22 -28.51882 -70.53768 30438 ft 413 kts 192°
2026-05-05 01:22 -28.54761 -70.54038 30436 ft 414 kts 192°
2026-05-05 01:23 -28.60474 -70.54572 30585 ft 412 kts 192°
2026-05-05 01:23 -28.66217 -70.55106 30760 ft 412 kts 192°
2026-05-05 01:24 -28.71920 -70.55640 30903 ft 412 kts 192°
2026-05-05 01:24 -28.77649 -70.56176 30990 ft 412 kts 193°
2026-05-05 01:25 -28.83352 -70.56711 30960 ft 413 kts 193°
2026-05-05 01:25 -28.89082 -70.57251 30853 ft 412 kts 193°
2026-05-05 01:26 -28.94803 -70.57794 30709 ft 412 kts 193°
2026-05-05 01:26 -29.00522 -70.58347 30530 ft 413 kts 193°
2026-05-05 01:27 -29.03397 -70.58626 30406 ft 413 kts 193°
2026-05-05 01:27 -29.06238 -70.58901 30232 ft 413 kts 193°
2026-05-05 01:27 -29.09124 -70.59180 30043 ft 413 kts 193°
2026-05-05 01:27 -29.11995 -70.59459 29927 ft 414 kts 193°
2026-05-05 01:28 -29.17735 -70.60014 29814 ft 412 kts 193°
2026-05-05 01:28 -29.23446 -70.60569 29723 ft 413 kts 192°
2026-05-05 01:29 -29.29196 -70.61128 29717 ft 414 kts 192°
2026-05-05 01:29 -29.34957 -70.61686 29747 ft 414 kts 192°
2026-05-05 01:30 -29.40682 -70.62242 29764 ft 414 kts 192°
2026-05-05 01:30 -29.46444 -70.62803 29779 ft 414 kts 192°
2026-05-05 01:31 -29.52185 -70.63363 29794 ft 414 kts 192°
2026-05-05 01:31 -29.57920 -70.63924 29829 ft 414 kts 192°
2026-05-05 01:32 -29.63692 -70.64488 29879 ft 414 kts 192°
2026-05-05 01:32 -29.69434 -70.65050 29933 ft 414 kts 193°
2026-05-05 01:33 -29.75157 -70.65610 29983 ft 413 kts 193°
2026-05-05 01:33 -29.80880 -70.66171 30018 ft 413 kts 193°
2026-05-05 01:34 -29.86627 -70.66735 30040 ft 413 kts 193°
2026-05-05 01:34 -29.92338 -70.67297 30064 ft 412 kts 193°
2026-05-05 01:35 -29.98070 -70.67860 30099 ft 412 kts 193°
2026-05-05 01:35 -30.03764 -70.68421 30117 ft 412 kts 193°
2026-05-05 01:36 -30.09477 -70.68984 30065 ft 411 kts 193°
2026-05-05 01:36 -30.15206 -70.69551 29990 ft 411 kts 193°
2026-05-05 01:37 -30.20917 -70.70116 29899 ft 411 kts 193°
2026-05-05 01:37 -30.26603 -70.70678 29814 ft 412 kts 193°
2026-05-05 01:38 -30.32316 -70.71244 29792 ft 412 kts 193°
2026-05-05 01:38 -30.38057 -70.71812 29796 ft 412 kts 193°
2026-05-05 01:39 -30.43772 -70.72380 29809 ft 412 kts 193°
2026-05-05 01:39 -30.49507 -70.72950 29826 ft 412 kts 193°
2026-05-05 01:40 -30.55250 -70.73522 29859 ft 413 kts 193°
2026-05-05 01:40 -30.60963 -70.74089 29930 ft 413 kts 193°
2026-05-05 01:41 -30.66740 -70.74652 30079 ft 421 kts 193°
2026-05-05 01:41 -30.69660 -70.74940 30232 ft 428 kts 193°
2026-05-05 01:41 -30.72673 -70.75235 30455 ft 433 kts 193°
2026-05-05 01:42 -30.75642 -70.75521 30793 ft 434 kts 193°
2026-05-05 01:42 -30.78683 -70.75813 31221 ft 433 kts 193°
2026-05-05 01:42 -30.81665 -70.76099 31663 ft 431 kts 193°
2026-05-05 01:42 -30.84657 -70.76387 32050 ft 430 kts 193°
2026-05-05 01:43 -30.90635 -70.76966 32156 ft 429 kts 193°
2026-05-05 01:43 -30.96525 -70.77539 32096 ft 427 kts 193°
2026-05-05 01:44 -31.02445 -70.78116 31930 ft 425 kts 193°
2026-05-05 01:44 -31.05396 -70.78406 31807 ft 425 kts 193°
2026-05-05 01:44 -31.08346 -70.78696 31720 ft 425 kts 193°
2026-05-05 01:45 -31.14261 -70.79277 31609 ft 426 kts 193°
2026-05-05 01:45 -31.20199 -70.79858 31537 ft 427 kts 193°
2026-05-05 01:46 -31.26093 -70.80434 31493 ft 426 kts 193°
2026-05-05 01:46 -31.32004 -70.81012 31323 ft 420 kts 193°
2026-05-05 01:47 -31.34908 -70.81293 31109 ft 417 kts 193°
2026-05-05 01:47 -31.37782 -70.81577 30878 ft 416 kts 193°
2026-05-05 01:47 -31.40666 -70.81864 30633 ft 416 kts 193°
2026-05-05 01:47 -31.43569 -70.82153 30355 ft 416 kts 193°
2026-05-05 01:48 -31.46455 -70.82440 30014 ft 418 kts 193°
2026-05-05 01:48 -31.49356 -70.82727 29552 ft 418 kts 193°
2026-05-05 01:48 -31.52272 -70.83015 29025 ft 419 kts 193°
2026-05-05 01:48 -31.55151 -70.83300 28475 ft 419 kts 193°
2026-05-05 01:49 -31.58068 -70.83588 27891 ft 420 kts 193°
2026-05-05 01:49 -31.60948 -70.83872 27417 ft 416 kts 192°
2026-05-05 01:49 -31.63820 -70.84154 26993 ft 412 kts 192°
2026-05-05 01:49 -31.66688 -70.84440 26606 ft 411 kts 192°
2026-05-05 01:50 -31.69532 -70.84723 26240 ft 408 kts 192°
2026-05-05 01:50 -31.72329 -70.85000 25920 ft 406 kts 192°
2026-05-05 01:50 -31.75166 -70.85195 25585 ft 406 kts 188°
2026-05-05 01:50 -31.78004 -70.85195 25224 ft 406 kts 186°
2026-05-05 01:51 -31.80812 -70.85106 24841 ft 404 kts 185°
2026-05-05 01:51 -31.83585 -70.85002 24465 ft 401 kts 185°
2026-05-05 01:51 -31.86388 -70.84896 24130 ft 398 kts 185°
2026-05-05 01:51 -31.89134 -70.84794 23756 ft 395 kts 185°
2026-05-05 01:52 -31.91852 -70.84695 23366 ft 392 kts 185°
2026-05-05 01:52 -31.94581 -70.84596 22957 ft 390 kts 185°
2026-05-05 01:52 -31.97297 -70.84499 22544 ft 387 kts 185°
2026-05-05 01:52 -31.99959 -70.84403 22141 ft 383 kts 185°
2026-05-05 01:53 -32.02642 -70.84308 21743 ft 380 kts 185°
2026-05-05 01:53 -32.05313 -70.84212 21362 ft 376 kts 185°
2026-05-05 01:53 -32.07941 -70.84117 20978 ft 373 kts 185°
2026-05-05 01:53 -32.10565 -70.84023 20579 ft 368 kts 185°
2026-05-05 01:54 -32.13098 -70.83929 20187 ft 364 kts 185°
2026-05-05 01:54 -32.15636 -70.83836 19786 ft 361 kts 185°
2026-05-05 01:54 -32.18139 -70.83746 19386 ft 357 kts 185°
2026-05-05 01:54 -32.20608 -70.83657 18991 ft 355 kts 185°
2026-05-05 01:55 -32.23068 -70.83570 18595 ft 353 kts 185°
2026-05-05 01:55 -32.25530 -70.83482 18197 ft 350 kts 185°
2026-05-05 01:55 -32.27931 -70.83397 17803 ft 346 kts 185°
2026-05-05 01:55 -32.30333 -70.83311 17407 ft 342 kts 184°
2026-05-05 01:56 -32.32702 -70.83225 17014 ft 341 kts 184°
2026-05-05 01:56 -32.35069 -70.83139 16548 ft 337 kts 184°
2026-05-05 01:56 -32.37446 -70.83057 16120 ft 344 kts 184°
2026-05-05 01:56 -32.39861 -70.82968 15724 ft 346 kts 184°
2026-05-05 01:57 -32.42262 -70.82878 15331 ft 344 kts 184°
2026-05-05 01:57 -32.44645 -70.82790 15042 ft 343 kts 184°
2026-05-05 01:57 -32.47046 -70.82701 14789 ft 341 kts 184°
2026-05-05 01:57 -32.49409 -70.82616 14466 ft 339 kts 184°
2026-05-05 01:58 -32.51746 -70.82529 14093 ft 335 kts 184°
2026-05-05 01:58 -32.54064 -70.82447 13699 ft 331 kts 184°
2026-05-05 01:58 -32.56352 -70.82364 13299 ft 328 kts 184°
2026-05-05 01:58 -32.58628 -70.82278 12894 ft 324 kts 184°
2026-05-05 01:59 -32.60878 -70.82200 12492 ft 321 kts 184°
2026-05-05 01:59 -32.63107 -70.82127 12088 ft 318 kts 184°
2026-05-05 01:59 -32.65281 -70.82046 11702 ft 315 kts 184°
2026-05-05 01:59 -32.67463 -70.81963 11394 ft 307 kts 183°
2026-05-05 02:00 -32.69564 -70.81884 11261 ft 293 kts 184°
2026-05-05 02:00 -32.71547 -70.81810 11140 ft 280 kts 184°
2026-05-05 02:00 -32.73462 -70.81743 11026 ft 270 kts 183°
2026-05-05 02:00 -32.75330 -70.81677 10918 ft 267 kts 183°
2026-05-05 02:01 -32.77210 -70.81607 10641 ft 267 kts 183°
2026-05-05 02:01 -32.79058 -70.81542 10359 ft 264 kts 183°
2026-05-05 02:01 -32.80888 -70.81480 10087 ft 262 kts 182°
2026-05-05 02:01 -32.82704 -70.81419 9820 ft 261 kts 182°
2026-05-05 02:02 -32.84525 -70.81354 9553 ft 259 kts 182°
2026-05-05 02:02 -32.86325 -70.81290 9288 ft 257 kts 181°
2026-05-05 02:02 -32.88099 -70.81226 9027 ft 256 kts 181°
2026-05-05 02:02 -32.89877 -70.81162 8767 ft 255 kts 181°
2026-05-05 02:03 -32.91659 -70.81139 8504 ft 253 kts 184°
2026-05-05 02:03 -32.93402 -70.81297 8246 ft 250 kts 188°
2026-05-05 02:03 -32.95137 -70.81552 7987 ft 249 kts 189°
2026-05-05 02:03 -32.96829 -70.81812 7732 ft 247 kts 188°
2026-05-05 02:04 -32.98546 -70.82076 7471 ft 246 kts 188°
2026-05-05 02:04 -33.00259 -70.82281 7213 ft 245 kts 184°
2026-05-05 02:04 -33.02038 -70.82295 6958 ft 260 kts 179°
2026-05-05 02:04 -33.03874 -70.82204 6669 ft 262 kts 178°
2026-05-05 02:05 -33.05688 -70.82098 6388 ft 260 kts 178°
2026-05-05 02:05 -33.07490 -70.81988 6119 ft 258 kts 178°
2026-05-05 02:05 -33.09259 -70.81881 5892 ft 251 kts 178°
2026-05-05 02:05 -33.10986 -70.81780 5621 ft 246 kts 178°
2026-05-05 02:06 -33.12687 -70.81683 5351 ft 242 kts 178°
2026-05-05 02:06 -33.14376 -70.81589 5073 ft 239 kts 178°
2026-05-05 02:06 -33.16017 -70.81498 4799 ft 235 kts 178°
2026-05-05 02:06 -33.17645 -70.81409 4524 ft 232 kts 178°
2026-05-05 02:07 -33.19255 -70.81323 4250 ft 229 kts 178°
2026-05-05 02:07 -33.20844 -70.81237 3977 ft 225 kts 178°
2026-05-05 02:07 -33.22368 -70.81156 3698 ft 211 kts 178°
2026-05-05 02:07 -33.23791 -70.81080 3659 ft 196 kts 178°
2026-05-05 02:08 -33.25093 -70.81010 3606 ft 175 kts 178°
2026-05-05 02:08 -33.26242 -70.80947 3555 ft 158 kts 178°
2026-05-05 02:08 -33.27342 -70.80888 3433 ft 158 kts 178°
2026-05-05 02:08 -33.28439 -70.80829 3226 ft 156 kts 178°
2026-05-05 02:09 -33.29520 -70.80771 3023 ft 155 kts 178°
2026-05-05 02:09 -33.30598 -70.80714 2837 ft 151 kts 178°
2026-05-05 02:09 -33.31638 -70.80658 2633 ft 150 kts 178°
2026-05-05 02:09 -33.32681 -70.80602 2435 ft 149 kts 178°
2026-05-05 02:10 -33.33714 -70.80550 2243 ft 149 kts 178°
2026-05-05 02:10 -33.34753 -70.80503 2064 ft 148 kts 177°
2026-05-05 02:10 -33.35786 -70.80437 1868 ft 148 kts 177°
2026-05-05 02:10 -33.36821 -70.80388 1675 ft 147 kts 178°
2026-05-05 02:11 -33.37823 -70.80338 1569 ft 131 kts 178°
2026-05-05 02:11 -33.38563 -70.80299 1568 ft 82 kts 177°
2026-05-05 02:11 -33.39021 -70.80275 1567 ft 44 kts 178°
2026-05-05 02:11 -33.39266 -70.80238 1566 ft 31 kts 159°
2026-05-05 02:12 -33.39449 -70.80111 1566 ft 29 kts 148°
2026-05-05 02:12 -33.39592 -70.79932 1565 ft 13 kts 185°
2026-05-05 02:12 -33.39685 -70.79932 1565 ft 13 kts 179°
2026-05-05 02:13 -33.39784 -70.79928 1564 ft 14 kts 176°
2026-05-05 02:13 -33.39834 -70.79881 1564 ft 9 kts 94°
2026-05-05 02:13 -33.39845 -70.79802 1564 ft 9 kts 141°
2026-05-05 02:13 -33.39915 -70.79806 1564 ft 10 kts 184°